Key West, FL

6:51 PM EDT on May 26, 2018 (GMT -0400)
Key West International

Weather History for KEYW - October, 2014

Change the Weather History Date:

Tuesday, October 28, 2014

  Actual Average Record
Temperature  
Mean Temperature 80 °F 79 °F  
Max Temperature 84 °F 83 °F 91 °F (1960)
Min Temperature 75 °F 74 °F 60 °F (1957)
Degree Days  
Heating Degree Days 0 0  
Month to date heating degree days 0 0  
Since 1 July heating degree days 0 0  
Cooling Degree Days 15 13  
Month to date cooling degree days 458 433  
Year to date cooling degree days 4545 4168  
Growing Degree Days 30 (Base 50)    
Moisture  
Dew Point 72 °F    
Average Humidity 82    
Maximum Humidity 94    
Minimum Humidity 69    
Precipitation  
Precipitation 0.00 in 0.12 in 2.25 in (1913)
Month to date precipitation 5.95 4.59  
Year to date precipitation 33.51 34.97  
Snow  
Snow 0.00 in - - ()
Month to date snowfall 0.0  
Since 1 July snowfall 0.0  
Since 1 September snowfall 0.0  
Snow Depth 0.00 in    
Sea Level Pressure  
Sea Level Pressure 30.07 in    
Wind  
Wind Speed 11 mph (ENE)    
Max Wind Speed 21 mph    
Max Gust Speed 27 mph    
Visibility 10 miles    
Events      
T = Trace of Precipitation, MM = Missing Value Source: NWS Daily Summary

Daily Weather History Graph

Daily Weather History Graph

Search for Another Location

Airport or City:

Astronomy

Oct. 28, 2014 Rise Set
Actual Time 7:31 AM EDT 6:49 PM EDT
Civil Twilight 7:08 AM EDT 7:12 PM EDT
Nautical Twilight 6:41 AM EDT 7:39 PM EDT
Astronomical Twilight 6:14 AM EDT 8:06 PM EDT
Moon 11:48 AM EDT (10/28) 11:04 PM EDT (10/28)
Length of Visible Light 12h 04m
Length of Day
11h 18m
Waxing Crescent, 24% of the Moon is Illuminated
Oct 28
Waxing Crescent
Oct 30
First Quarter
Nov 6
Full
Nov 14
Last Quarter
Nov 22
New

Hourly Weather History & Observations

Time (EDT) Temp. Heat Index Dew Point Humidity Pressure Visibility Wind Dir Wind Speed Gust Speed Precip Events Conditions
12:53 AM 79.0 °F - 70.0 °F 74% 30.05 in 10.0 mi East 8.1 mph - N/A   Clear
1:53 AM 77.0 °F - 71.1 °F 82% 30.05 in 10.0 mi ENE 6.9 mph - N/A   Partly Cloudy
2:53 AM 77.0 °F - 73.0 °F 88% 30.04 in 9.0 mi NE 5.8 mph - N/A   Clear
3:53 AM 75.9 °F - 73.9 °F 94% 30.04 in 10.0 mi NE 8.1 mph - N/A   Scattered Clouds
4:53 AM 77.0 °F - 73.0 °F 88% 30.05 in 10.0 mi NE 5.8 mph - N/A   Scattered Clouds
5:53 AM 75.9 °F - 73.9 °F 94% 30.05 in 10.0 mi NE 5.8 mph - N/A   Partly Cloudy
6:53 AM 75.9 °F - 73.9 °F 94% 30.07 in 10.0 mi ENE 6.9 mph - N/A   Scattered Clouds
7:53 AM 75.9 °F - 73.9 °F 94% 30.08 in 10.0 mi NE 8.1 mph - N/A   Clear
8:53 AM 78.1 °F - 73.0 °F 84% 30.09 in 10.0 mi ENE 9.2 mph - N/A   Clear
9:53 AM 80.1 °F 84.2 °F 73.0 °F 79% 30.10 in 10.0 mi ENE 11.5 mph 17.3 mph N/A   Partly Cloudy
10:53 AM 81.0 °F 84.9 °F 71.1 °F 72% 30.11 in 10.0 mi East 16.1 mph 21.9 mph N/A   Mostly Cloudy
11:53 AM 82.9 °F 88.0 °F 72.0 °F 69% 30.11 in 10.0 mi East 15.0 mph 21.9 mph N/A   Clear
12:53 PM 82.9 °F 87.5 °F 71.1 °F 67% 30.09 in 10.0 mi East 13.8 mph - N/A   Partly Cloudy
1:53 PM 82.9 °F 88.0 °F 72.0 °F 69% 30.06 in 10.0 mi East 16.1 mph 21.9 mph N/A   Partly Cloudy
2:53 PM 82.9 °F 88.0 °F 72.0 °F 69% 30.05 in 10.0 mi East 18.4 mph 24.2 mph N/A   Clear
3:53 PM 82.0 °F 86.3 °F 71.1 °F 69% 30.05 in 10.0 mi East 17.3 mph 23.0 mph N/A   Partly Cloudy
4:53 PM 82.0 °F 86.3 °F 71.1 °F 69% 30.04 in 10.0 mi East 15.0 mph 26.5 mph N/A   Scattered Clouds
5:53 PM 80.1 °F 83.6 °F 71.1 °F 74% 30.04 in 10.0 mi East 15.0 mph 20.7 mph N/A   Overcast
6:53 PM 80.1 °F 83.8 °F 72.0 °F 76% 30.05 in 10.0 mi East 11.5 mph - N/A   Overcast
7:53 PM 80.1 °F 83.8 °F 72.0 °F 76% 30.06 in 10.0 mi East 9.2 mph - N/A   Overcast
8:53 PM 80.1 °F 83.8 °F 72.0 °F 76% 30.07 in 10.0 mi East 8.1 mph - N/A   Mostly Cloudy
9:53 PM 80.1 °F 83.8 °F 72.0 °F 76% 30.08 in 10.0 mi ENE 8.1 mph - N/A   Overcast
10:53 PM 79.0 °F - 72.0 °F 79% 30.09 in 10.0 mi ENE 6.9 mph - N/A   Overcast
11:53 PM 79.0 °F - 72.0 °F 79% 30.08 in 10.0 mi ENE 8.1 mph - N/A   Mostly Cloudy